Bavaria

Go HERE for most recent data if this page is not up to date.

Jump to table bottom
Date Time Temp F RH % AVG Wind Max Wind Wind Dir 24 Snow Depth
*12/02/22 21 0.6 60 9 15 W - 265 0.4 43.2
*12/02/22 20 -0.2 66 7 17 SW - 238 0.3 43.3
*12/02/22 19 -0.2 72 6 18 SW - 221 0.3 43.3
*12/02/22 18 -0.4 70 7 16 SW - 241 0.1 43.4
*12/02/22 17 0.3 67 7 17 SW - 228 0.0 43.1
*12/02/22 16 4.0 58 9 17 SW - 241 0.0 43.2
*12/02/22 15 3.0 62 13 19 SW - 243 0.0 43.3
*12/02/22 14 2.2 67 12 20 W - 262 -0.0 43.4
*12/02/22 13 2.0 73 10 14 W - 251 0.1 43.6
*12/02/22 12 1.5 77 12 19 SW - 238 0.2 43.7
*12/02/22 11 1.3 78 10 16 W - 287 0.0 43.9
*12/02/22 10 -0.5 79 12 19 W - 263 0.2 44.1
*12/02/22 09 -0.5 79 12 20 W - 254 0.3 44.2
*12/02/22 08 -0.9 79 9 24 W - 281 0.3 44.3
*12/02/22 07 -1.4 80 11 21 W - 271 0.3 44.4
*12/02/22 06 -1.0 80 13 24 SW - 220 0.3 44.6
*12/02/22 05 -1.0 80 14 22 W - 282 0.2 44.6
*12/02/22 04 0.4 79 16 25 NW - 302 0.3 44.8
*12/02/22 03 1.9 73 16 26 NW - 307 0.2 44.9
*12/02/22 02 3.6 82 11 20 NW - 304 0.1 45.1
*12/02/22 01 6.4 83 15 23 W - 288 0.1 45.1
*12/02/22 00 8.4 83 18 27 W - 286 0.1 45.9
*12/01/22 23 10.5 83 17 24 W - 285 0.0 45.8
*12/01/22 22 13.0 85 16 22 NW - 314 0.0 45.5
*12/01/22 21 16.1 87 15 29 NW - 315 0.0 43.5
*12/01/22 20 17.6 88 17 26 W - 271 0.2 44.1
*12/01/22 19 17.4 88 22 32 SW - 214 0.2 44.2
*12/01/22 18 16.9 88 24 34 SW - 235 0.2 43.7
*12/01/22 17 17.1 87 22 39 SW - 221 0.2 43.2
*12/01/22 16 17.5 86 20 33 SW - 240 0.2 42.9
*12/01/22 15 18.0 81 17 29 W - 253 0.2 43.1
*12/01/22 14 17.7 84 14 29 SW - 231 0.2 43.2
*12/01/22 13 17.5 86 17 32 W - 256 0.2 43.3
*12/01/22 12 16.6 88 16 32 SW - 238 0.2 43.7
*12/01/22 11 16.9 86 19 32 SW - 237 0.2 44.0
*12/01/22 10 16.1 88 21 31 SW - 243 0.2 43.8
*12/01/22 09 16.4 86 22 35 SW - 243 0.2 43.8
*12/01/22 08 16.3 88 20 30 SW - 243 0.2 43.0
*12/01/22 07 16.5 88 20 29 W - 252 0.2 43.0
*12/01/22 06 16.6 87 18 28 SW - 226 0.2 43.2
*12/01/22 05 16.3 88 16 26 SW - 223 0.2 43.8
*12/01/22 04 15.8 88 18 29 W - 251 0.2 43.0
*12/01/22 03 16.1 83 19 30 SW - 229 0.2 143.3
*12/01/22 02 15.0 87 19 26 SW - 223 0.2 42.8
*12/01/22 01 15.6 81 15 23 SW - 205 0.2 42.3
*12/01/22 00 15.8 78 16 22 SW - 228 0.2 42.2
.